Regional Weather Roundup
Issued by NWS

Home | Current Version | Previous Version | Text Only | Print | Product List | Glossary Off
Versions: 1 2 3 4 5 6 7 8 9 10 11 12 13 14 15 16 17 18 19 20 21 22 23 24 25 26 27 28 29 30 31 32 33 34 35 36 37 38 39 40 41 42 43 44 45 46 47 48 49 50

000
ASUS43 KDTX 200310
RWRMI
MICHIGAN HOURLY REGIONAL WEATHER ROUNDUP
NATIONAL WEATHER SERVICE DETROIT/PONTIAC MI
1100 PM EDT TUE AUG 19 2014

NOTE: "FAIR" INDICATES FEW OR NO CLOUDS BELOW 12,000 FEET WITH NO
SIGNIFICANT WEATHER AND/OR OBSTRUCTION TO VISIBILITY.

MIZ047>049-052>055-059>063-066>070-074>076-081>083-200400-
SOUTHEAST LOWER MICHIGAN

CITY           SKY/WX    TMP DP  RH WIND       PRES   REMARKS
ADRIAN         MOCLDY    68  64  87 W5        29.81R
ALMA           CLOUDY    68  66  94 S3        29.76S
ANN ARBOR      PTCLDY    64  61  90 CALM      29.80R
BAD AXE        CLOUDY    65  65 100 SW6       29.78R
DETROIT CITY   MOCLDY    69  65  86 S5        29.80R
DETROIT        CLOUDY    68  64  87 VRB3      29.80S
FLINT          CLEAR     67  63  87 S7        29.78S
GROSSE ILE     CLOUDY    70  66  88 SE8       29.79S
HILLSDALE      MOCLDY    67  67 100 S5        29.81S
HOWELL         PTCLDY    64  63  97 S3        29.80S

CITY           SKY/WX    TMP DP  RH WIND       PRES   REMARKS
JACKSON        MOCLDY    66  64  93 SW5       29.80R
LAMBERTVILLE   CLOUDY    68  64  88 S3        29.82R
LANSING        CLOUDY    67  64  90 S6        29.78S
LAPEER         NOT AVBL
MASON          PTCLDY    64  63  96 S3        29.79S
MONROE         MOCLDY    66  64  94 SE7       29.79R
MT. CLEMENS    MOCLDY    67  67  99 S3        29.79S
PONTIAC        MOCLDY    66  64  93 S3        29.80R
PORT HOPE        N/A     67  63  87 VRB5      29.75R
PORT HURON     MOCLDY    63  63 100 CALM      29.81R
TRI CITIES     CLOUDY    68  65  90 S9        29.77R
YPSILANTI      MOCLDY    69  64  84 CALM      29.81R
$$
MIZ043>046-050>051-056>058-064>065-071>073-077>080-200400-
SOUTHWEST LOWER MICHIGAN

CITY           SKY/WX    TMP DP  RH WIND       PRES   REMARKS
BATTLE CREEK   MOCLDY    70  66  87 S6        29.79R
BENTON HARBOR  MOCLDY    71  66  84 SW3       29.75R
BIG RAPIDS     MOCLDY    67  67 100 W3        29.75F FOG
COLDWATER      CLOUDY    69  67  94 CALM      29.79S
HOLLAND        MOCLDY    70  68  93 CALM      29.77R FOG
GRAND RAPIDS   MOCLDY    70  70 100 S5        29.77S FOG
KALAMAZOO      CLOUDY    70  65  84 S3        29.78R
MARSHALL       MOCLDY    67  65  96 CALM      29.78F
MUSKEGON       PTCLDY    68  65  90 CALM      29.76R FOG
$$
MIZ016>042-200400-
NORTHERN LOWER MICHIGAN

CITY           SKY/WX    TMP DP  RH WIND       PRES   REMARKS
ALPENA         PTCLDY    67  65  93 S3        29.72S
BEAVER ISLAND  CLOUDY    63  62  97 CALM      29.73R FOG
BELLAIRE       MOCLDY    65  63  94 CALM      29.71R FOG
CADILLAC       CLEAR     64  64 100 CALM      29.74F FOG
CHARLEVOIX     CLOUDY    65  65  99 CALM      29.74S
FRANKFORT      PTCLDY    67  63  87 CALM      29.71S
GAYLORD        PTCLDY    66  64  93 CALM      29.73F
GRAYLING       CLEAR     63  63 100 SE3       29.74F FOG
HARBOR SPRINGS CLOUDY    65  64  95 CALM      29.71F FOG
HOUGHTON LAKE  PTCLDY    65  65 100 S7        29.75S FOG
MANISTEE       MOCLDY    66  63  88 CALM      29.73S
OSCODA         MOCLDY    67  67  98 S3        29.73R
PELLSTON       CLOUDY    63  62  97 N3        29.72S
TRAVERSE CITY  CLEAR     67  64  90 CALM      29.70S
$$
MIZ007>008-015-200400-
EASTERN UPPER MICHIGAN

CITY           SKY/WX    TMP DP  RH WIND       PRES   REMARKS
KINROSS        CLOUDY    61  61 100 E8        29.73F
MACKINAC ISLAN CLOUDY    58  58  99 E14G23    29.72F
NEWBERRY       CLOUDY    62  62  99 S8        29.73S FOG
S. S. MARIE    CLOUDY    62  59  90 E5        29.74S
$$
MIZ004>006-011>014-085-200400-
CENTRAL UPPER MICHIGAN

CITY           SKY/WX    TMP DP  RH WIND       PRES   REMARKS
MANISTIQUE     FOG       62  62 100 CALM      29.71S VSB 3/4
ESCANABA       CLOUDY    63  61  94 NW6       29.71R
MENOMINEE      PTCLDY    64  63  94 CALM      29.71R
SAWYER-GWINN   CLOUDY    59  58  97 NE9       29.74R FOG
$$
MIZ001>003-009>011-084-200400-
WESTERN UPPER MICHIGAN

CITY           SKY/WX    TMP DP  RH WIND       PRES   REMARKS
IRON MOUNTAIN  CLOUDY    64  59  83 NW10      29.72S
HOUGHTON       CLOUDY    53  52  96 NW3       29.76S FOG
COPPER HARBOR    N/A     55  53  93 CALM      29.75F
IRONWOOD       CLOUDY    57  57 100 NW3       29.78S
$$

ABBREVIATIONS USED IN REMARKS
   TC - TEMPERATURE IN CELSIUS
  WCI - WIND CHILL INDEX
   HX - HEAT INDEX
  VSB - VISIBILITY



USA.gov is the U.S. government's official web portal to all federal, state and local government web resources and services.